SL-14 R/B

Satellite information

Favourite Embed

Satellite Type and Status

ROCKET BODYIN ORBIT

Key statistics

Satellite SL-14 R/B at a glance.

Uptime

13932

Days in orbit

Revolutions

≈ 14.9

Per day

Orbit

LEO

Low Earth Orbit

Inclination

82.5

Latest

Satellite identification and parameters

Extended collection of information and parameters for SL-14 R/B.

Object identification

Identified? True

Debris? False

Object name: SL-14 R/B

International designator: 1987-062B

Object number (NORAD): 18215

Object ID (CCSDS): 18215

Country: COMMONWEALTH OF INDEPENDENT STATES (CIS)

Current information (Y/N): Y

RCS size: LARGE

Orbital parameters

Period: 96.946 minutes

Inclination: 82.5153 deg

SMA: 6990.564 km

Apoapsis: 625.28 km

Periapsis: 599.578 km

RAAN: 347.2389 deg

Eccentricy: 0.00183835

Argument of periapsis: 307.3702 deg

Mean anomaly: 221.0752 deg

Mean motion: 14.85369251 rev/day

Mean motion (dot): 0.00000871 rev/day2

B* drag term: 0.00009823645 1/REarth

Two-line elements (TLE)

Creation date: Sept. 6, 2025, 2:09 a.m.

Reference frame: TEME

Reference center: EARTH

Epoch: Sept. 5, 2025, 6:36 p.m. UTC

TLE line 0: 0 SL-14 R/B

TLE line 1: 1 18215U 87062B 25248.77519301 .00000871 00000-0 98236-4 0 9992

TLE line 2: 2 18215 82.5153 347.2389 0018384 307.3702 221.0752 14.85369251 40057

Live tracking on map

Real-time ground track for satellite SL-14 R/B.

In-orbit conjunctions

A list of the most updated potential collisions computed for object SL-14 R/B.

Target Orbit TCA Probability of collision Miss distance Type
SL-24 DEB SSO 2024-12-18 23:49:19 0.0001816549 284.0 (m) DEBRIS
DELTA 1 DEB LEO 2024-11-26 07:59:25 0.0004278899 81.0 (m) DEBRIS
CZ-6A DEB SSO 2024-07-01 13:18:22 0.0006893015 110.0 (m) DEBRIS

Associated space launch

Ocean observation satellite

SL-14 R/B was lifted into orbit during the mission ‘Tsiklon-3 | Okean-O1 2’, on board a Tsiklon-3 space rocket.

The launch took place on July 16, 1987, 4:25 a.m. from 32/2.

For more information about the launch, click the button.

Launch to space Tsiklon-3 | Okean-O1 2
Tsiklon-3 | Okean-O1 2

Agency: N/A

Status: Launch Successful

Launch date: July 16, 1987, 4:25 a.m. UTC

Rocket: Tsiklon-3

Launch pad: 32/2

Location: Plesetsk Cosmodrome, Russian Federation

...

Latest news about this satellite

There are no fresh news available about this satellite. Check back as we update our databases every day.


Newsletter sign-up

Weekly statistics, charts and insights to help you stay on top of the space industry.